Location: Earls Croome
(52.0667°N, 2.2000°W)
Time: 02:10:52
(UTC+00:00)

COSMOS 2455 - Pass Details

Date: 22 February 2020
Orbit: 901 x 909 km, 67.2° (Epoch: 06 April)

Event Time Altitude Azimuth Distance (km) Brightness Sun altitude
Exits shadow 05:08:59 - 324° (NW) 2,936 5.2 -19.4°
Reaches altitude 10° 05:09:59 10° 328° (NNW) 2,601 5.0 -19.3°
Maximum altitude 05:15:33 37° 35° (NE) 1,377 4.1 -18.4°
Drops below altitude 10° 05:21:07 10° 102° (ESE) 2,594 6.4 -17.6°
Sets 05:23:49 0° 111° (ESE) 3,534 7.1 -17.2°
